Time,TemperatureF,DewpointF,PressureIn,WindDirection,WindDirectionDegrees,WindSpeedMPH,WindSpeedGustMPH,Humidity,HourlyPrecipIn,Conditions,Clouds,dailyrainin,SoftwareType,DateUTC
2013-08-17 00:07:00,57.8,57.0,30.20,WSW,245,0.0,1.0,97,0.07,,,0.07,weatherlink.com 1.10,2013-08-17 04:07:00,
2013-08-17 00:22:00,57.5,57.0,30.20,WSW,244,0.0,0.0,98,0.07,,,0.07,weatherlink.com 1.10,2013-08-17 04:22:00,
2013-08-17 00:37:00,57.4,57.0,30.20,WSW,244,0.0,1.0,98,0.01,,,0.07,weatherlink.com 1.10,2013-08-17 04:37:00,
2013-08-17 00:52:00,57.1,57.0,30.20,WSW,244,1.0,1.0,99,0.00,,,0.07,weatherlink.com 1.10,2013-08-17 04:52:00,
2013-08-17 01:07:00,57.0,57.0,30.20,WSW,245,1.0,1.0,99,0.00,,,0.07,weatherlink.com 1.10,2013-08-17 05:07:00,
2013-08-17 01:22:00,56.8,57.0,30.21,WSW,245,0.0,1.0,99,0.00,,,0.07,weatherlink.com 1.10,2013-08-17 05:22:00,
2013-08-17 01:37:00,56.5,56.0,30.21,WSW,245,0.0,1.0,99,0.00,,,0.07,weatherlink.com 1.10,2013-08-17 05:37:00,
2013-08-17 01:52:00,56.1,56.0,30.21,WSW,244,1.0,1.0,99,0.00,,,0.07,weatherlink.com 1.10,2013-08-17 05:52:00,
2013-08-17 02:07:00,55.5,55.0,30.22,WSW,244,1.0,1.0,99,0.00,,,0.07,weatherlink.com 1.10,2013-08-17 06:07:00,
2013-08-17 02:22:00,54.8,55.0,30.22,WSW,245,0.0,1.0,99,0.00,,,0.00,weatherlink.com 1.10,2013-08-17 06:22:00,
2013-08-17 02:37:00,54.7,55.0,30.22,WSW,245,0.0,0.0,99,0.00,,,0.00,weatherlink.com 1.10,2013-08-17 06:37:00,
2013-08-17 02:52:00,54.4,54.0,30.22,WSW,245,0.0,1.0,99,0.00,,,0.00,weatherlink.com 1.10,2013-08-17 06:52:00,
2013-08-17 03:08:00,53.9,54.0,30.22,WSW,245,1.0,1.0,99,0.00,,,0.00,weatherlink.com 1.10,2013-08-17 07:08:00,
2013-08-17 03:23:00,53.6,53.0,30.22,WSW,245,1.0,1.0,99,0.00,,,0.00,weatherlink.com 1.10,2013-08-17 07:23:00,
2013-08-17 03:38:00,53.4,53.0,30.22,ENE,69,2.0,2.0,100,0.00,,,0.00,weatherlink.com 1.10,2013-08-17 07:38:00,
2013-08-17 03:53:00,53.2,53.0,30.22,ENE,65,1.0,1.0,100,0.00,,,0.00,weatherlink.com 1.10,2013-08-17 07:53:00,
2013-08-17 04:08:00,53.4,53.0,30.23,ENE,65,1.0,1.0,100,0.00,,,0.00,weatherlink.com 1.10,2013-08-17 08:08:00,
2013-08-17 04:23:00,53.3,53.0,30.23,ENE,66,2.0,2.0,100,0.00,,,0.00,weatherlink.com 1.10,2013-08-17 08:23:00,
2013-08-17 04:38:00,53.1,53.0,30.23,ENE,66,1.0,1.0,100,0.00,,,0.00,weatherlink.com 1.10,2013-08-17 08:38:00,
2013-08-17 04:53:00,53.3,53.0,30.23,ENE,65,1.0,1.0,100,0.00,,,0.00,weatherlink.com 1.10,2013-08-17 08:53:00,
2013-08-17 05:08:00,53.0,53.0,30.23,ENE,66,0.0,1.0,100,0.00,,,0.00,weatherlink.com 1.10,2013-08-17 09:08:00,
2013-08-17 05:23:00,53.3,53.0,30.23,ENE,65,0.0,1.0,100,0.00,,,0.00,weatherlink.com 1.10,2013-08-17 09:23:00,
2013-08-17 05:38:00,53.0,53.0,30.23,ENE,65,0.0,1.0,100,0.00,,,0.00,weatherlink.com 1.10,2013-08-17 09:38:00,
2013-08-17 05:53:00,53.0,53.0,30.24,ENE,65,0.0,1.0,100,0.00,,,0.00,weatherlink.com 1.10,2013-08-17 09:53:00,
2013-08-17 06:08:00,52.8,53.0,30.24,ENE,66,0.0,1.0,100,0.00,,,0.00,weatherlink.com 1.10,2013-08-17 10:08:00,
2013-08-17 06:23:00,52.8,53.0,30.25,ENE,65,1.0,1.0,100,0.00,,,0.00,weatherlink.com 1.10,2013-08-17 10:23:00,
2013-08-17 06:38:00,53.2,53.0,30.25,ENE,66,0.0,0.0,100,0.00,,,0.00,weatherlink.com 1.10,2013-08-17 10:38:00,
2013-08-17 06:53:00,54.1,54.0,30.25,ENE,66,0.0,1.0,100,0.00,,,0.00,weatherlink.com 1.10,2013-08-17 10:53:00,
2013-08-17 07:08:00,56.2,56.0,30.25,ENE,66,0.0,0.0,100,0.00,,,0.00,weatherlink.com 1.10,2013-08-17 11:08:00,
2013-08-17 07:23:00,57.2,57.0,30.25,ENE,66,0.0,0.0,100,0.00,,,0.00,weatherlink.com 1.10,2013-08-17 11:23:00,
2013-08-17 07:38:00,59.0,59.0,30.26,ENE,66,0.0,1.0,99,0.00,,,0.00,weatherlink.com 1.10,2013-08-17 11:38:00,
2013-08-17 07:53:00,60.4,58.0,30.26,ENE,68,0.0,1.0,92,0.00,,,0.00,weatherlink.com 1.10,2013-08-17 11:53:00,
2013-08-17 08:08:00,60.1,57.0,30.27,East,88,1.0,2.0,89,0.00,,,0.00,weatherlink.com 1.10,2013-08-17 12:08:00,
2013-08-17 08:23:00,57.8,56.0,30.27,East,96,1.0,1.0,94,0.00,,,0.00,weatherlink.com 1.10,2013-08-17 12:23:00,
2013-08-17 08:38:00,58.5,57.0,30.27,SE,141,0.0,1.0,96,0.00,,,0.00,weatherlink.com 1.10,2013-08-17 12:38:00,
2013-08-17 08:53:00,61.5,60.0,30.27,South,175,0.0,3.0,93,0.00,,,0.00,weatherlink.com 1.10,2013-08-17 12:53:00,
2013-08-17 09:08:00,62.5,59.0,30.27,SSE,155,0.0,4.0,89,0.00,,,0.00,weatherlink.com 1.10,2013-08-17 13:08:00,
2013-08-17 09:23:00,63.8,61.0,30.27,SSE,155,1.0,3.0,90,0.00,,,0.00,weatherlink.com 1.10,2013-08-17 13:23:00,
2013-08-17 09:38:00,64.8,61.0,30.27,South,187,1.0,3.0,86,0.00,,,0.00,weatherlink.com 1.10,2013-08-17 13:38:00,
2013-08-17 09:53:00,65.9,60.0,30.27,ESE,123,0.0,2.0,80,0.00,,,0.00,weatherlink.com 1.10,2013-08-17 13:53:00,
2013-08-17 10:08:00,66.2,61.0,30.27,ESE,113,0.0,1.0,82,0.00,,,0.00,weatherlink.com 1.10,2013-08-17 14:08:00,
2013-08-17 10:24:00,67.9,62.0,30.28,SE,125,0.0,2.0,82,0.00,,,0.00,weatherlink.com 1.10,2013-08-17 14:24:00,
2013-08-17 10:39:00,69.6,62.0,30.27,ENE,68,0.0,2.0,77,0.00,,,0.00,weatherlink.com 1.10,2013-08-17 14:39:00,
2013-08-17 10:54:00,70.3,59.0,30.27,West,267,0.0,4.0,68,0.00,,,0.00,weatherlink.com 1.10,2013-08-17 14:54:00,
2013-08-17 11:09:00,71.0,60.0,30.27,SSE,168,2.0,3.0,69,0.00,,,0.00,weatherlink.com 1.10,2013-08-17 15:09:00,
2013-08-17 11:24:00,70.4,58.0,30.27,NNW,332,1.0,4.0,64,0.00,,,0.00,weatherlink.com 1.10,2013-08-17 15:24:00,
2013-08-17 11:39:00,71.7,58.0,30.27,East,98,0.0,2.0,63,0.00,,,0.00,weatherlink.com 1.10,2013-08-17 15:39:00,
2013-08-17 11:54:00,71.8,58.0,30.27,South,187,1.0,3.0,62,0.00,,,0.00,weatherlink.com 1.10,2013-08-17 15:54:00,
2013-08-17 12:09:00,72.5,59.0,30.27,SSW,212,1.0,3.0,62,0.00,,,0.00,weatherlink.com 1.10,2013-08-17 16:09:00,
2013-08-17 12:24:00,72.2,56.0,30.27,SW,215,2.0,3.0,58,0.00,,,0.00,weatherlink.com 1.10,2013-08-17 16:24:00,
2013-08-17 12:39:00,71.4,57.0,30.27,SW,215,2.0,2.0,61,0.00,,,0.00,weatherlink.com 1.10,2013-08-17 16:39:00,
2013-08-17 12:54:00,72.1,56.0,30.27,ENE,58,2.0,3.0,58,0.00,,,0.00,weatherlink.com 1.10,2013-08-17 16:54:00,
2013-08-17 13:09:00,71.1,57.0,30.27,South,171,3.0,3.0,61,0.00,,,0.00,weatherlink.com 1.10,2013-08-17 17:09:00,
2013-08-17 13:24:00,71.4,55.0,30.27,East,88,0.0,3.0,57,0.00,,,0.00,weatherlink.com 1.10,2013-08-17 17:24:00,
2013-08-17 13:39:00,69.7,56.0,30.27,North,10,1.0,5.0,62,0.00,,,0.00,weatherlink.com 1.10,2013-08-17 17:39:00,
2013-08-17 13:54:00,68.6,55.0,30.27,NNW,340,1.0,2.0,63,0.00,,,0.00,weatherlink.com 1.10,2013-08-17 17:54:00,
2013-08-17 14:09:00,68.5,54.0,30.26,WNW,290,0.0,3.0,61,0.00,,,0.00,weatherlink.com 1.10,2013-08-17 18:09:00,
2013-08-17 14:24:00,68.4,55.0,30.26,SW,234,1.0,2.0,62,0.00,,,0.00,weatherlink.com 1.10,2013-08-17 18:24:00,
2013-08-17 14:39:00,68.4,52.0,30.26,NNE,33,0.0,3.0,57,0.00,,,0.00,weatherlink.com 1.10,2013-08-17 18:39:00,
2013-08-17 14:54:00,68.6,54.0,30.26,SSW,213,1.0,3.0,59,0.00,,,0.00,weatherlink.com 1.10,2013-08-17 18:54:00,
2013-08-17 15:09:00,68.1,53.0,30.26,WSW,238,0.0,2.0,58,0.00,,,0.00,weatherlink.com 1.10,2013-08-17 19:09:00,
2013-08-17 15:24:00,68.4,53.0,30.26,West,269,0.0,4.0,58,0.00,,,0.00,weatherlink.com 1.10,2013-08-17 19:24:00,
2013-08-17 15:39:00,68.1,54.0,30.25,NNW,332,0.0,5.0,62,0.00,,,0.00,weatherlink.com 1.10,2013-08-17 19:39:00,
2013-08-17 15:54:00,67.7,55.0,30.25,South,172,2.0,2.0,65,0.00,,,0.00,weatherlink.com 1.10,2013-08-17 19:54:00,
2013-08-17 16:09:00,67.1,53.0,30.25,SSE,148,0.0,2.0,60,0.00,,,0.00,weatherlink.com 1.10,2013-08-17 20:09:00,
2013-08-17 16:24:00,66.8,53.0,30.25,WSW,254,1.0,2.0,61,0.00,,,0.00,weatherlink.com 1.10,2013-08-17 20:24:00,
2013-08-17 16:39:00,66.7,53.0,30.25,NE,35,0.0,1.0,62,0.00,,,0.00,weatherlink.com 1.10,2013-08-17 20:39:00,
2013-08-17 16:54:00,66.3,54.0,30.25,WSW,238,0.0,3.0,65,0.00,,,0.00,weatherlink.com 1.10,2013-08-17 20:54:00,
2013-08-17 17:09:00,65.8,54.0,30.24,NNW,331,0.0,0.0,65,0.00,,,0.00,weatherlink.com 1.10,2013-08-17 21:09:00,
2013-08-17 17:24:00,65.3,54.0,30.24,NNE,26,0.0,0.0,67,0.00,,,0.00,weatherlink.com 1.10,2013-08-17 21:24:00,
2013-08-17 17:39:00,65.0,55.0,30.24,SSE,163,0.0,0.0,69,0.00,,,0.00,weatherlink.com 1.10,2013-08-17 21:39:00,
2013-08-17 17:54:00,64.6,57.0,30.25,SSE,163,0.0,0.0,75,0.00,,,0.00,weatherlink.com 1.10,2013-08-17 21:54:00,
2013-08-17 18:09:00,63.7,57.0,30.25,SSE,163,0.0,0.0,78,0.00,,,0.00,weatherlink.com 1.10,2013-08-17 22:09:00,
2013-08-17 18:24:00,62.5,57.0,30.25,SSE,163,0.0,1.0,81,0.00,,,0.00,weatherlink.com 1.10,2013-08-17 22:24:00,
2013-08-17 18:39:00,61.7,57.0,30.25,SE,144,0.0,1.0,83,0.00,,,0.00,weatherlink.com 1.10,2013-08-17 22:39:00,
2013-08-17 18:54:00,59.9,55.0,30.26,ESE,111,2.0,2.0,83,0.00,,,0.00,weatherlink.com 1.10,2013-08-17 22:54:00,
2013-08-17 19:09:00,59.0,55.0,30.26,ENE,71,2.0,2.0,85,0.00,,,0.00,weatherlink.com 1.10,2013-08-17 23:09:00,
2013-08-17 19:24:00,57.9,54.0,30.25,ENE,71,1.0,2.0,85,0.00,,,0.00,weatherlink.com 1.10,2013-08-17 23:24:00,
2013-08-17 19:39:00,57.2,53.0,30.25,ENE,71,2.0,2.0,86,0.00,,,0.00,weatherlink.com 1.10,2013-08-17 23:39:00,
2013-08-17 19:54:00,56.8,52.0,30.25,ENE,69,2.0,2.0,85,0.00,,,0.00,weatherlink.com 1.10,2013-08-17 23:54:00,
2013-08-17 20:09:00,56.8,52.0,30.25,ENE,61,2.0,2.0,85,0.00,,,0.00,weatherlink.com 1.10,2013-08-18 00:09:00,
2013-08-17 20:24:00,56.8,52.0,30.26,ENE,57,2.0,2.0,83,0.00,,,0.00,weatherlink.com 1.10,2013-08-18 00:24:00,
2013-08-17 20:39:00,56.5,51.0,30.26,NE,55,2.0,2.0,82,0.00,,,0.00,weatherlink.com 1.10,2013-08-18 00:39:00,
2013-08-17 20:54:00,56.3,51.0,30.26,NE,49,1.0,2.0,82,0.00,,,0.00,weatherlink.com 1.10,2013-08-18 00:54:00,
2013-08-17 21:09:00,56.0,51.0,30.26,NE,50,1.0,1.0,84,0.00,,,0.00,weatherlink.com 1.10,2013-08-18 01:09:00,
2013-08-17 21:24:00,55.9,51.0,30.27,NE,50,1.0,1.0,84,0.00,,,0.00,weatherlink.com 1.10,2013-08-18 01:24:00,
2013-08-17 21:39:00,55.9,51.0,30.27,NE,50,0.0,1.0,84,0.00,,,0.00,weatherlink.com 1.10,2013-08-18 01:39:00,
2013-08-17 21:54:00,55.7,52.0,30.27,NE,50,0.0,1.0,86,0.00,,,0.00,weatherlink.com 1.10,2013-08-18 01:54:00,
2013-08-17 22:09:00,55.6,51.0,30.27,NE,50,1.0,1.0,84,0.00,,,0.00,weatherlink.com 1.10,2013-08-18 02:09:00,
2013-08-17 22:24:00,55.4,51.0,30.27,NE,50,1.0,1.0,86,0.00,,,0.00,weatherlink.com 1.10,2013-08-18 02:24:00,
2013-08-17 22:39:00,55.5,51.0,30.27,NE,50,1.0,2.0,85,0.00,,,0.00,weatherlink.com 1.10,2013-08-18 02:39:00,
2013-08-17 22:54:00,55.2,51.0,30.27,NE,50,0.0,1.0,86,0.00,,,0.00,weatherlink.com 1.10,2013-08-18 02:54:00,
2013-08-17 23:09:00,55.0,51.0,30.27,NE,50,1.0,1.0,85,0.00,,,0.00,weatherlink.com 1.10,2013-08-18 03:09:00,
2013-08-17 23:24:00,54.9,51.0,30.26,NE,49,0.0,1.0,87,0.00,,,0.00,weatherlink.com 1.10,2013-08-18 03:24:00,
2013-08-17 23:39:00,54.7,51.0,30.27,NE,50,0.0,1.0,86,0.00,,,0.00,weatherlink.com 1.10,2013-08-18 03:39:00,
2013-08-17 23:54:00,54.7,50.0,30.27,NE,50,1.0,1.0,85,0.00,,,0.00,weatherlink.com 1.10,2013-08-18 03:54:00,